Beckley, WV

2:54 AM EST on November 12, 2019 (GMT -0500)
Raleigh County Memorial

Weather History for KBKW - July, 2019

Change the Weather History Date:

Tuesday, July 30, 2019

  Actual Average Record
Temperature  
Mean Temperature 73 °F 70 °F  
Max Temperature 82 °F 80 °F 92 °F (1931)
Min Temperature 64 °F 61 °F 47 °F (1932)
Degree Days  
Heating Degree Days 0 0  
Month to date heating degree days 3 0  
Since 1 June heating degree days 36 39  
Since 1 July heating degree days 3 0  
Cooling Degree Days 8 6  
Month to date cooling degree days 267 180  
Year to date cooling degree days 493 332  
Since 1 June cooling degree days 373 291  
Growing Degree Days 23 (Base 50)    
Moisture  
Dew Point 63 °F    
Average Humidity 73    
Maximum Humidity 93    
Minimum Humidity 54    
Precipitation  
Precipitation 0.21 in 0.17 in 1.59 in (1982)
Month to date precipitation 5.23 4.86  
Year to date precipitation 28.12 26.02  
Sea Level Pressure  
Sea Level Pressure 30.06 in    
Wind  
Wind Speed 4 mph ()    
Max Wind Speed 15 mph    
Max Gust Speed 20 mph    
Visibility 9.3 miles    
Events Rain , Thunderstorm    
T = Trace of Precipitation, MM = Missing Value Source: Averaged Metar Reports

Daily Weather History Graph

Daily Weather History Graph

Search for Another Location

Airport or City:

Astronomy

Jul. 30, 2019 Rise Set
Actual Time 6:26 AM EDT 8:35 PM EDT
Civil Twilight 5:56 AM EDT 9:04 PM EDT
Nautical Twilight 5:20 AM EDT 9:40 PM EDT
Astronomical Twilight 4:41 AM EDT 10:18 PM EDT
Moon 4:34 AM EDT (7/30) 7:37 PM EDT (7/30)
Length of Visible Light 15h 07m
Length of Day
14h 09m
Waning Crescent, 3% of the Moon is Illuminated
Jul 30
Waning Crescent
Jul 31
New
Aug 7
First Quarter
Aug 15
Full
Aug 23
Last Quarter

Hourly Weather History & Observations

Time (EDT) Temp. Heat Index Dew Point Humidity Pressure Visibility Wind Dir Wind Speed Gust Speed Precip Events Conditions
12:51 AM 69.1 °F - 61.0 °F 75% 30.02 in 10.0 mi Calm Calm - N/A   Partly Cloudy
1:51 AM 68.0 °F - 61.0 °F 78% 30.01 in 10.0 mi Calm Calm - N/A   Clear
2:51 AM 66.0 °F - 60.1 °F 81% 30.01 in 10.0 mi South 3.5 mph - N/A   Clear
3:51 AM 64.9 °F - 60.1 °F 84% 30.00 in 10.0 mi South 3.5 mph - N/A   Clear
4:51 AM 64.9 °F - 60.1 °F 84% 30.01 in 10.0 mi Calm Calm - N/A   Clear
5:51 AM 66.0 °F - 60.1 °F 81% 30.01 in 10.0 mi South 3.5 mph - N/A   Clear
6:51 AM 66.0 °F - 60.1 °F 81% 30.02 in 10.0 mi SE 3.5 mph - N/A   Clear
7:51 AM 69.1 °F - 62.1 °F 78% 30.03 in 10.0 mi Calm Calm - N/A   Partly Cloudy
8:51 AM 73.9 °F - 63.0 °F 68% 30.04 in 10.0 mi SSW 5.8 mph - N/A   Partly Cloudy
9:51 AM 75.9 °F - 63.0 °F 64% 30.04 in 10.0 mi SW 8.1 mph - N/A   Clear
10:51 AM 78.1 °F - 64.0 °F 62% 30.06 in 10.0 mi West 5.8 mph - N/A   Partly Cloudy
11:51 AM 80.1 °F 81.9 °F 64.9 °F 60% 30.04 in 10.0 mi West 6.9 mph - N/A   Mostly Cloudy
12:15 PM 78.1 °F - 64.0 °F 62% 30.15 in 10.0 mi SW 6.9 mph - N/A Thunderstorm Partly Cloudy
12:36 PM 79.0 °F - 64.0 °F 60% 30.14 in 10.0 mi WNW 10.4 mph - N/A   Partly Cloudy
12:51 PM 79.0 °F - 62.1 °F 56% 30.03 in 10.0 mi West 8.1 mph - N/A   Scattered Clouds
12:58 PM 81.0 °F 82.5 °F 64.0 °F 56% 30.14 in 10.0 mi NW 8.1 mph - N/A Thunderstorm Scattered Clouds
1:34 PM 78.1 °F - 64.0 °F 62% 30.14 in 10.0 mi NNW 13.8 mph - N/A   Mostly Cloudy
1:51 PM 75.9 °F - 62.1 °F 62% 30.04 in 10.0 mi North 9.2 mph - N/A   Mostly Cloudy
2:06 PM 79.0 °F - 63.0 °F 58% 30.13 in 10.0 mi WNW 5.8 mph - N/A Thunderstorm Scattered Clouds
2:23 PM 77.0 °F - 61.0 °F 58% 30.13 in 10.0 mi WNW 3.5 mph - 0.00 in   Mostly Cloudy
2:51 PM 81.0 °F 82.5 °F 64.0 °F 56% 30.00 in 10.0 mi Variable 3.5 mph - 0.00 in   Clear
3:51 PM 79.0 °F - 61.0 °F 54% 30.01 in 10.0 mi West 3.5 mph - N/A   Partly Cloudy
4:05 PM 78.1 °F - 62.1 °F 58% 30.10 in 10.0 mi WSW 3.5 mph - N/A Thunderstorm Partly Cloudy
4:51 PM 73.0 °F - 63.0 °F 71% 30.02 in 10.0 mi WNW 11.5 mph - 0.00 in Thunderstorm Mostly Cloudy
5:05 PM 71.1 °F - 60.1 °F 68% 30.11 in 10.0 mi NNW 13.8 mph 19.6 mph N/A Thunderstorm Thunderstorm
5:12 PM 69.1 °F - 61.0 °F 75% 30.12 in 1.8 mi NW 9.2 mph - 0.03 in Rain , Thunderstorm Heavy Thunderstorms and Rain
5:21 PM 68.0 °F - 61.0 °F 78% 30.11 in 0.8 mi NE 4.6 mph - 0.20 in Rain , Thunderstorm Light Thunderstorms and Rain
5:26 PM 68.0 °F - 63.0 °F 84% 30.10 in 2.5 mi ENE 3.5 mph - 0.21 in Rain , Thunderstorm Light Thunderstorms and Rain
5:33 PM 68.0 °F - 64.0 °F 87% 30.11 in 9.0 mi East 6.9 mph - 0.21 in Rain , Thunderstorm Light Thunderstorms and Rain
5:44 PM 70.0 °F - 64.9 °F 84% 30.11 in 10.0 mi ESE 6.9 mph - 0.21 in Thunderstorm Scattered Clouds
5:51 PM 70.0 °F - 64.0 °F 81% 30.03 in 10.0 mi SE 3.5 mph - 0.21 in   Partly Cloudy
6:51 PM 72.0 °F - 66.0 °F 81% 30.04 in 10.0 mi SE 4.6 mph - N/A   Clear
7:51 PM 71.1 °F - 66.9 °F 87% 30.03 in 10.0 mi SSE 3.5 mph - N/A   Partly Cloudy
8:51 PM 68.0 °F - 64.9 °F 90% 30.04 in 10.0 mi SSE 5.8 mph - N/A   Clear
9:51 PM 66.9 °F - 64.0 °F 90% 30.05 in 10.0 mi SSE 4.6 mph - N/A   Partly Cloudy
10:51 PM 66.9 °F - 63.0 °F 87% 30.04 in 10.0 mi SSW 3.5 mph - N/A   Clear
11:51 PM 66.0 °F - 63.0 °F 90% 30.06 in 10.0 mi Calm Calm - N/A   Clear